Iridium 90 - Orbit

View from above orbital plane
View from above orbital plane
View from above satellite
View from above satellite

Ground track
Ground track

The orbit data is extracted from the following two-line orbital elements,

1 27373U 02005B   13140.38930433  .00000506  00000-0  14552-3 0  8384
2 27373 086.4486 252.2844 0001532 280.2996 079.8032 14.42952163596662
Epoch (UTC): 20 May 2013 09:20:35
Eccentricity: 0.0001532
inclination: 86.4486°
perigee height: 747 km
apogee height: 750 km
right ascension of ascending node: 252.2844°
argument of perigee: 280.2996°
revolutions per day: 14.42952163
mean anomaly at epoch: 79.8032°
orbit number at epoch: 59666

The dashed part of the orbit path shows where the satellite is in the earth's shadow,  

Developed and maintained by Chris Peat, Heavens-Above GmbH. Please read the updated FAQ before sending e-mail. Imprint. DLR